Location: *
(48.8167°N, 10.5167°E)
Time: 05:36:40
(UTC+00:00)

Daily predictions for brighter satellites

Satellite Brightness Start Highest point End
(mag) Time Altitude Azimuth Time Altitude Azimuth Time Altitude Azimuth
ATLAS 2AS CENTAUR R/B 4.4 01:07:45 31° E 01:07:45 31° E 01:12:47 10° NE
Cosmos 2333 Rocket 4.2 01:46:16 25° NE 01:46:16 25° NE 01:48:32 10° NNE
Cosmos 2219 Rocket 4.1 01:50:24 24° NE 01:50:24 24° NE 01:52:34 10° NNE
ADEOS II 4.4 01:46:44 10° NNE 01:48:08 19° NNE 01:48:08 19° NNE
Cosmos 2237 Rocket 3.7 02:06:09 33° ENE 02:06:09 33° ENE 02:10:02 10° NE
IDEFIX/ARIANE 42P 4.4 02:09:34 10° NE 02:13:55 26° E 02:14:45 25° ESE
USA 234 3.6 02:08:41 10° E 02:14:54 58° NNE 02:14:54 58° NNE
NOSS 3-4 (A) 4.2 02:17:00 47° E 02:17:00 47° E 02:22:10 10° NE
NOSS 3-4 (C) 4.2 02:17:05 47° E 02:17:05 47° E 02:22:17 10° NE
Cosmos 2322 Rocket 4.4 02:20:17 15° N 02:20:17 15° N 02:21:41 10° N
ATLAS 3B R/B 3.8 02:21:54 33° SE 02:21:54 33° SE 02:25:25 10° SE
Cosmos 2360 Rocket 4.1 02:26:15 20° N 02:26:15 20° N 02:28:20 10° NNE
CENTAUR R/B 3.2 02:26:11 64° SSE 02:26:11 64° SSE 02:33:24 10° SSE
Cosmos 1943 Rocket 4.4 02:25:10 10° N 02:29:26 21° NE 02:33:42 10° E
COSMOS 2428 3.9 02:36:17 35° N 02:36:17 35° N 02:39:38 10° NNE
Cosmos 1140 Rocket 4.5 02:38:20 42° E 02:38:20 42° E 02:42:59 10° NE
NOSS 0 Rocket 4.1 02:38:57 70° NE 02:38:57 70° NE 02:44:27 10° NNE
ARIANE 5 R/B 4.5 02:36:12 10° N 02:37:39 19° N 02:37:39 19° N
USA 32 4.3 02:54:14 63° NE 02:54:14 63° NE 02:58:48 10° N
ATLAS 2AS CENTAUR R/B 2.9 02:55:12 66° W 02:56:18 74° NW 03:04:21 10° NE
COSMOS 2455 4.1 03:01:33 29° NNW 03:01:33 29° NNW 03:05:54 10° NNE
SL-16 R/B 3.3 02:58:48 24° SSE 03:01:42 42° ESE 03:07:01 10° NE
ADEOS 3.8 03:01:14 10° NNE 03:06:28 66° ESE 03:07:55 46° SSE
BREEZE-M DEB (TANK) 3.3 03:10:19 44° E 03:10:19 44° E 03:12:04 10° E
Cosmos 1023 Rocket 4.4 03:09:58 79° SE 03:10:03 80° ESE 03:15:12 10° NNE
Cosmos 2297 3.6 03:12:15 40° NNW 03:14:27 88° ENE 03:20:11 10° SSE
Cosmos 2184 Rocket 3.9 03:16:09 40° SSW 03:18:38 83° W 03:25:00 10° N
Meteor 1-4 Rocket 4.4 03:24:28 23° NNE 03:24:28 23° NNE 03:25:54 10° NNE
USA 267 3.3 03:16:13 10° ENE 03:22:47 77° SE 03:25:16 41° SW
Nadezhda 3 Rocket 4.0 03:16:28 10° N 03:22:53 81° E 03:29:13 10° SSE
H-2A R/B 3.0 03:21:21 10° NNE 03:25:34 59° ESE 03:27:44 28° S
Cosmos 2058 Rocket 3.8 03:21:35 10° N 03:25:57 53° ENE 03:30:18 10° SSE
Cosmos 2333 Rocket 3.3 03:28:18 28° NNW 03:28:18 28° NNW 03:32:33 10° NNE
ADEOS II 3.9 03:27:12 10° N 03:29:04 18° NNW 03:29:04 18° NNW
Cosmos 2219 Rocket 3.4 03:32:08 26° NNW 03:32:08 26° NNW 03:36:10 10° NNE
In-Cosmos 22 4.4 03:32:29 10° S 03:37:49 67° E 03:43:20 10° NNE
MSX 3.8 03:34:01 10° NNE 03:39:48 87° ESE 03:45:32 10° SSW
Cosmos 1726 2.3 03:36:09 10° N 03:39:50 69° E 03:43:30 10° SSE
RESURS DK-1 2.2 03:42:46 75° W 03:42:57 77° WNW 03:47:07 10° NNE
Cosmos 44 Rocket 3.4 03:45:14 48° SW 03:45:14 48° SW 03:49:22 10° SSE
Cosmos 2074 Rocket 4.1 03:42:47 35° SW 03:45:05 53° WNW 03:51:10 10° N
Cosmos 1892 Rocket 3.6 03:41:04 11° S 03:45:21 80° E 03:49:45 10° NNE
Cosmos 676 Rocket 3.9 03:44:10 41° SW 03:45:58 70° WNW 03:51:13 10° NNE
BREEZE-M R/B 4.0 03:44:04 43° W 03:46:04 84° N 03:56:45 10° E
Cosmos 2237 Rocket 2.6 03:48:00 40° WNW 03:48:49 42° NW 03:54:15 10° NNE
COSMOS 2441 4.3 03:45:00 10° NNE 03:49:56 83° WNW 03:54:48 10° SSW
Cosmos 407 Rocket 4.0 03:50:38 37° WNW 03:50:40 37° WNW 03:55:26 10° N
IDEFIX/ARIANE 42P 2.7 03:48:43 10° N 03:53:46 50° WNW 03:55:33 35° WSW
Cosmos 1190 Rocket 4.5 03:54:22 38° WNW 03:54:56 39° WNW 03:59:54 10° N
Cosmos 2344 4.4 03:47:03 10° NW 03:56:42 81° SW 04:10:13 10° SSE
USA 234 3.2 03:51:33 10° SE 03:58:03 67° SW 04:02:15 24° WNW
Cosmos 2369 Rocket 2.6 03:53:59 10° NNW 03:59:33 62° ENE 04:05:05 10° SE
Cosmos 1437 Rocket 2.6 03:57:36 12° S 04:01:02 89° ESE 04:04:52 10° NNE
Cosmos 1908 3.1 03:59:44 10° N 04:03:35 86° E 04:07:24 10° S
NOSS 3-4 (A) 3.9 04:04:28 30° W 04:07:03 44° NW 04:13:20 10° NE
NOSS 3-4 (C) 3.9 04:04:32 30° W 04:07:09 44° NW 04:13:26 10° NE
ATLAS 3B R/B 3.8 04:09:16 22° WSW 04:09:16 22° WSW 04:13:31 10° SSW
Cosmos 2228 4.0 04:08:08 10° NNW 04:13:23 26° SW 04:15:46 10° SSW
Cosmos 1943 Rocket 2.2 04:08:19 10° NNW 04:14:02 87° ENE 04:19:44 10° SSE
CENTAUR R/B 4.0 04:13:29 23° W 04:14:40 24° WSW 04:21:03 10° SSW
CZ-4B R/B 3.8 04:11:03 10° NNE 04:15:07 80° WNW 04:19:22 10° SSW
GP-B 3.0 04:10:59 10° S 04:15:25 73° W 04:19:53 10° N
BREEZE-M DEB (TANK) 4.5 04:10:07 10° SSW 04:15:45 24° SSE 04:18:14 10° ESE
PSLV R/B 4.2 04:13:13 10° NNE 04:16:54 60° ESE 04:20:33 10° S
Meteor 2-5 Rocket 3.8 04:11:06 10° S 04:16:57 87° E 04:22:57 10° NNE
Cosmos 1626 Rocket 4.0 04:13:32 10° S 04:17:47 62° E 04:22:05 10° NNE
Meteor 2-17 Rocket 4.4 04:11:55 10° S 04:17:59 88° W 04:24:05 10° N
Cosmos 1674 2.5 04:15:08 10° SSW 04:18:51 78° W 04:22:36 10° N
COSMOS 2428 4.4 04:18:18 15° NW 04:19:30 16° NW 04:22:57 10° N
Cosmos 1140 Rocket 4.2 04:18:24 26° W 04:20:03 32° NW 04:24:40 10° N
Cosmos 1707 4.5 04:22:20 17° NW 04:22:20 17° NW 04:24:01 10° NNW
ERBS 4.1 04:23:19 18° NW 04:24:28 21° N 04:27:07 10° NE
Cosmos 1850 Rocket 3.9 04:19:56 10° SSW 04:25:06 79° WNW 04:30:20 10° NNE
CZ-2C R/B 2.5 04:20:10 10° N 04:25:16 58° WNW 04:30:17 10° SSW
Cosmos 1626 3.7 04:25:32 10° SSE 04:28:59 38° E 04:32:27 10° NNE
Meteor 1-31 Rocket 2.8 04:26:13 10° N 04:29:55 51° WNW 04:33:37 10° SSW
COSMO-SKYMED 1 2.5 04:25:45 10° SSE 04:30:06 86° W 04:34:28 10° NNW
PAYLOAD A 4.3 04:26:49 10° N 04:31:26 43° WNW 04:36:11 10° SW
Cosmos 468 Rocket 4.2 04:29:35 10° NNW 04:34:31 46° WSW 04:39:23 10° S
Cosmos 1339 Rocket 4.5 04:30:59 10° NNW 04:37:19 77° W 04:43:41 10° S
Okean 1-7 Rocket 4.3 04:33:18 10° SW 04:37:21 33° WNW 04:41:28 10° N
COBE Rocket 4.0 04:32:58 10° S 04:38:03 67° W 04:43:14 10° NNW
Iridium 51 4.1 04:39:56 10° NNW 04:43:32 53° W 04:46:56 10° SSW
Cosmos 1484 Rocket 2.6 04:40:54 10° N 04:44:43 77° WNW 04:48:35 10° SSW
Cosmos 1603 3.9 04:40:11 10° SSW 04:45:49 79° ESE 04:51:31 10° NNE
SL-16 R/B 2.7 04:40:46 11° WSW 04:45:52 39° NW 04:51:12 10° NNE
ALOS 2.8 04:42:52 10° NNE 04:47:32 64° ESE 04:52:09 10° S
Cosmos 2263 4.2 04:42:31 10° NNW 04:48:15 81° WSW 04:53:59 10° SSE
Cosmos 1300 2.6 04:44:35 10° N 04:48:26 89° W 04:52:15 10° S
ATLAS 2AS CENTAUR R/B 3.9 04:42:41 15° W 04:48:37 34° NNW 04:55:40 10° NE
Cosmos 841 Rocket 3.5 04:45:24 10° NNW 04:50:40 73° WSW 04:55:53 10° SSE
ISS -0.8 04:49:53 10° S 04:51:54 15° SE 04:53:55 10° E
Cosmos 2218 Rocket 4.0 04:45:38 10° SSW 04:51:59 73° W 04:58:18 10° N
Cosmos 1602 Rocket 3.4 04:49:22 10° SSW 04:53:39 71° W 04:58:00 10° N
Meteor PRIRODA 4.1 04:51:16 10° N 04:54:49 41° WNW 04:58:19 10° SW
Cosmos 1570 Rocket 4.4 04:54:01 10° NW 04:59:02 42° WSW 05:03:59 10° S
CZ-4B R/B 3.7 04:55:48 10° N 04:59:11 28° WNW 05:02:27 10° SW
Meteor 1-24 Rocket 3.9 04:54:23 10° SSW 05:00:10 61° WNW 05:06:09 10° N
H-2A R/B 4.0 04:57:48 10° NNW 05:00:41 18° WNW 05:03:36 10° WSW
Cosmos 540 Rocket 3.4 04:56:28 10° NNW 05:01:38 72° WSW 05:06:44 10° SSE
Cosmos 2058 Rocket 4.5 05:00:33 10° NW 05:03:32 18° W 05:06:30 10° SW
USA 267 3.6 04:59:19 10° ENE 05:05:39 54° NNW 05:11:59 10° W
Cosmos 1727 Rocket 4.0 05:01:55 10° NNW 05:08:05 66° W 05:14:18 10° S
Cosmos 1763 Rocket 4.2 05:03:51 10° NW 05:08:21 31° W 05:12:46 10° SSW
Okean O Rocket 1.6 05:06:04 10° NNE 05:10:30 82° WNW 05:14:52 10° SSW
SL-8 R/B 4.0 05:09:23 10° WSW 05:14:10 70° SSE 05:18:56 10° E
Cosmos 1943 3.2 05:10:00 10° SSW 05:15:42 85° WNW 05:21:27 10° NNE
SKYMED 2 4.4 05:14:33 10° SSW 05:18:20 29° W 05:22:09 10° NW
